Location: Chervonnoye
(48.6000°N, 34.4000°E)
Time: 12:33:39
(UTC+00:00)

deb Kosmos-2237 - Pass Details

Date: 20 June 2021
Orbit: 850 x 1045 km, 71.0° (Epoch: 25 July)

Event Time Altitude Azimuth Distance (km) Brightness Sun altitude
Rises 18:52:47 0° 210° (SSW) 3,550 ? -8.4°
Reaches altitude 10° 18:55:13 10° 211° (SSW) 2,638 ? -8.7°
Maximum altitude 19:01:22 80° 298° (WNW) 990 ? -9.3°
Drops below altitude 10° 19:07:54 10° 27° (NNE) 2,790 ? -9.9°
Sets 19:10:33 0° 28° (NNE) 3,767 ? -10.2°
